Year,Month,Day,Hour,Minute,Value (Times are PST for temperature in C)
2009,04,05,00,00,3.30
2009,04,05,00,01,3.30
2009,04,05,00,02,3.30
2009,04,05,00,03,3.20
2009,04,05,00,04,3.20
2009,04,05,00,05,3.20
2009,04,05,00,06,3.20
2009,04,05,00,07,3.20
2009,04,05,00,08,3.20
2009,04,05,00,09,3.20
2009,04,05,00,10,3.20
2009,04,05,00,11,3.20
2009,04,05,00,12,3.20
2009,04,05,01,02,3.10
2009,04,05,01,03,3.10
2009,04,05,01,04,3.10
2009,04,05,01,05,3.10
2009,04,05,01,06,3.00
2009,04,05,01,07,3.00
2009,04,05,01,08,3.00
2009,04,05,01,09,2.90
2009,04,05,01,10,2.90
2009,04,05,01,11,2.90
2009,04,05,01,12,2.90
2009,04,05,01,13,2.90
2009,04,05,01,14,2.80
2009,04,05,01,15,2.80
2009,04,05,01,16,2.80
2009,04,05,01,17,2.80
2009,04,05,01,18,2.80
2009,04,05,01,19,2.80
2009,04,05,01,20,2.70
2009,04,05,01,21,2.70
2009,04,05,01,22,2.70
2009,04,05,01,23,2.70
2009,04,05,01,24,2.60
2009,04,05,01,25,2.60
2009,04,05,01,26,2.60
2009,04,05,01,27,2.60
2009,04,05,01,28,2.50
2009,04,05,01,29,2.50
2009,04,05,01,30,2.50
2009,04,05,01,31,2.50
2009,04,05,01,32,2.50
2009,04,05,01,33,2.50
2009,04,05,01,34,2.40
2009,04,05,01,35,2.40
2009,04,05,01,36,2.40
2009,04,05,01,37,2.40
2009,04,05,01,38,2.40
2009,04,05,01,39,2.40
2009,04,05,01,40,2.40
2009,04,05,01,41,2.50
2009,04,05,01,42,2.50
2009,04,05,01,43,2.50
2009,04,05,01,44,2.50
2009,04,05,01,45,2.50
2009,04,05,01,46,2.40
2009,04,05,01,47,2.40
2009,04,05,01,48,2.40
2009,04,05,01,49,2.40
2009,04,05,01,50,2.40
2009,04,05,01,51,2.40
2009,04,05,01,52,2.40
2009,04,05,01,53,2.40
2009,04,05,01,54,2.40
2009,04,05,01,55,2.40
2009,04,05,01,56,2.40
2009,04,05,01,57,2.40
2009,04,05,01,58,2.40
2009,04,05,01,59,2.40
2009,04,05,02,00,2.30
2009,04,05,02,01,2.30
2009,04,05,02,02,2.30
2009,04,05,02,03,2.40
2009,04,05,02,04,2.40
2009,04,05,02,05,2.40
2009,04,05,02,06,2.40
2009,04,05,02,07,2.40
2009,04,05,02,08,2.40
2009,04,05,02,09,2.40
2009,04,05,02,10,2.40
2009,04,05,02,11,2.40
2009,04,05,02,12,2.40
2009,04,05,02,13,2.40
2009,04,05,02,14,2.50
2009,04,05,02,15,2.50
2009,04,05,02,16,2.50
2009,04,05,02,17,2.50
2009,04,05,02,18,2.50
2009,04,05,02,19,2.50
2009,04,05,02,20,2.50
2009,04,05,02,21,2.50
2009,04,05,02,22,2.60
2009,04,05,02,23,2.60
2009,04,05,02,24,2.60
2009,04,05,02,25,2.60
2009,04,05,02,26,2.60
2009,04,05,02,27,2.60
2009,04,05,02,28,2.60
2009,04,05,02,29,2.60
2009,04,05,02,30,2.60
2009,04,05,02,31,2.60
2009,04,05,02,32,2.60
2009,04,05,02,33,2.60
2009,04,05,02,34,2.60
2009,04,05,02,35,2.60
2009,04,05,02,36,2.60
2009,04,05,02,37,2.60
2009,04,05,02,38,2.60
2009,04,05,02,39,2.60
2009,04,05,02,40,2.60
2009,04,05,02,41,2.60
2009,04,05,02,42,2.70
2009,04,05,02,43,2.70
2009,04,05,02,44,2.80
2009,04,05,02,45,2.80
2009,04,05,02,46,2.90
2009,04,05,02,47,3.00
2009,04,05,02,48,3.10
2009,04,05,02,49,3.10
2009,04,05,02,50,3.10
2009,04,05,02,51,3.20
2009,04,05,02,52,3.30
2009,04,05,02,53,3.30
2009,04,05,02,54,3.30
2009,04,05,02,55,3.30
2009,04,05,02,56,3.20
2009,04,05,02,57,3.20
2009,04,05,02,58,3.20
2009,04,05,02,59,3.30
2009,04,05,03,00,3.30
2009,04,05,03,01,3.30
2009,04,05,03,02,3.30
2009,04,05,03,03,3.30
2009,04,05,03,04,3.20
2009,04,05,03,05,3.30
2009,04,05,03,06,3.30
2009,04,05,03,07,3.30
2009,04,05,03,08,3.20
2009,04,05,03,09,3.20
2009,04,05,03,10,3.10
2009,04,05,03,11,3.10
2009,04,05,03,12,3.00
2009,04,05,03,13,3.00
2009,04,05,03,14,2.90
2009,04,05,03,15,2.90
2009,04,05,03,16,2.80
2009,04,05,03,17,2.80
2009,04,05,03,18,2.80
2009,04,05,03,19,2.70
2009,04,05,03,20,2.60
2009,04,05,03,21,2.60
2009,04,05,03,22,2.50
2009,04,05,03,23,2.50
2009,04,05,03,24,2.40
2009,04,05,03,25,2.40
2009,04,05,03,26,2.40
2009,04,05,03,27,2.30
2009,04,05,03,28,2.30
2009,04,05,03,29,2.30
2009,04,05,03,30,2.30
2009,04,05,03,31,2.20
2009,04,05,03,32,2.20
2009,04,05,03,33,2.20
2009,04,05,03,34,2.20
2009,04,05,03,35,2.10
2009,04,05,03,36,2.10
2009,04,05,03,37,2.10
2009,04,05,03,38,2.00
2009,04,05,03,39,2.00
2009,04,05,03,40,2.00
2009,04,05,03,41,2.00
2009,04,05,03,42,1.90
2009,04,05,03,43,1.90
2009,04,05,03,44,1.90
2009,04,05,03,45,1.90
2009,04,05,03,46,1.90
2009,04,05,03,47,1.90
2009,04,05,03,48,1.90
2009,04,05,03,49,1.90
2009,04,05,03,50,1.90
2009,04,05,03,51,1.90
2009,04,05,03,52,1.80
2009,04,05,03,53,1.80
2009,04,05,03,54,1.80
2009,04,05,03,55,1.90
2009,04,05,03,56,1.90
2009,04,05,03,57,1.90
2009,04,05,03,58,1.90
2009,04,05,03,59,1.90
2009,04,05,04,00,1.90
2009,04,05,04,01,1.90
2009,04,05,04,02,1.90
2009,04,05,04,03,1.90
2009,04,05,04,04,1.80
2009,04,05,04,05,1.80
2009,04,05,04,06,1.80
2009,04,05,04,07,1.80
2009,04,05,04,08,1.80
2009,04,05,04,09,1.80
2009,04,05,04,10,1.80
2009,04,05,04,11,1.80
2009,04,05,04,12,1.80
2009,04,05,04,13,1.80
2009,04,05,04,14,1.80
2009,04,05,04,15,1.80
2009,04,05,04,16,1.80
2009,04,05,04,17,1.80
2009,04,05,04,18,1.80
2009,04,05,04,19,1.80
2009,04,05,04,20,1.80
2009,04,05,04,21,1.80
2009,04,05,04,22,1.80
2009,04,05,04,23,1.80
2009,04,05,04,24,1.80
2009,04,05,04,25,1.80
2009,04,05,04,26,1.90
2009,04,05,04,27,1.90
2009,04,05,04,28,1.90
2009,04,05,04,29,1.90
2009,04,05,04,30,1.90
2009,04,05,04,31,1.90
2009,04,05,04,32,1.90
2009,04,05,04,33,1.90
2009,04,05,04,34,1.90
2009,04,05,04,35,1.80
2009,04,05,04,36,1.80
2009,04,05,04,37,1.80
2009,04,05,04,38,1.80
2009,04,05,04,39,1.70
2009,04,05,04,40,1.70
2009,04,05,04,41,1.70
2009,04,05,04,42,1.70
2009,04,05,04,43,1.60
2009,04,05,04,44,1.60
2009,04,05,04,45,1.60
2009,04,05,04,46,1.60
2009,04,05,04,47,1.60
2009,04,05,04,48,1.60
2009,04,05,04,49,1.60
2009,04,05,04,50,1.60
2009,04,05,04,51,1.60
2009,04,05,04,52,1.60
2009,04,05,04,53,1.70
2009,04,05,04,54,1.70
2009,04,05,04,55,1.70
2009,04,05,04,56,1.80
2009,04,05,04,57,1.80
2009,04,05,04,58,1.80
2009,04,05,04,59,1.80
2009,04,05,05,00,1.80
2009,04,05,05,01,1.80
2009,04,05,05,02,1.80
2009,04,05,05,03,1.80
2009,04,05,05,04,1.80
2009,04,05,05,05,1.80
2009,04,05,05,06,1.80
2009,04,05,05,07,1.80
2009,04,05,05,08,1.80
2009,04,05,05,09,1.80
2009,04,05,05,10,1.80
2009,04,05,05,11,1.80
2009,04,05,05,12,1.70
2009,04,05,05,13,1.70
2009,04,05,05,14,1.70
2009,04,05,05,15,1.70
2009,04,05,05,16,1.80
2009,04,05,05,17,1.80
2009,04,05,05,18,1.80
2009,04,05,05,19,1.90
2009,04,05,05,20,1.90
2009,04,05,05,21,1.90
2009,04,05,05,22,1.90
2009,04,05,05,23,1.80
2009,04,05,05,24,1.80
2009,04,05,05,25,1.80
2009,04,05,05,26,1.90
2009,04,05,05,27,1.90
2009,04,05,05,28,1.90
2009,04,05,05,29,2.00
2009,04,05,05,30,2.10
2009,04,05,05,31,2.20
2009,04,05,05,32,2.20
2009,04,05,05,33,2.20
2009,04,05,05,34,2.30
2009,04,05,05,35,2.30
2009,04,05,05,36,2.40
2009,04,05,05,37,2.40
2009,04,05,05,38,2.50
2009,04,05,05,39,2.50
2009,04,05,05,40,2.50
2009,04,05,05,41,2.50
2009,04,05,05,42,2.40
2009,04,05,05,43,2.40
2009,04,05,05,44,2.40
2009,04,05,05,45,2.40
2009,04,05,05,46,2.30
2009,04,05,05,47,2.30
2009,04,05,05,48,2.30
2009,04,05,05,49,2.20
2009,04,05,05,50,2.20
2009,04,05,05,51,2.20
2009,04,05,05,52,2.20
2009,04,05,05,53,2.10
2009,04,05,05,54,2.10
2009,04,05,05,55,2.10
2009,04,05,05,56,2.10
2009,04,05,05,57,2.00
2009,04,05,05,58,2.00
2009,04,05,05,59,2.00
2009,04,05,06,00,2.00
2009,04,05,06,01,2.00
2009,04,05,06,02,2.00
2009,04,05,06,03,2.00
2009,04,05,06,04,2.00
2009,04,05,06,05,1.90
2009,04,05,06,06,1.90
2009,04,05,06,07,1.90
2009,04,05,06,08,1.90
2009,04,05,06,09,1.90
2009,04,05,06,10,1.90
2009,04,05,06,11,2.00
2009,04,05,06,12,2.00
2009,04,05,06,13,2.10
2009,04,05,06,14,2.10
2009,04,05,06,15,2.00
2009,04,05,06,16,2.00
2009,04,05,06,17,2.00
2009,04,05,06,18,2.00
2009,04,05,06,19,1.90
2009,04,05,06,20,2.00
2009,04,05,06,21,2.00
2009,04,05,06,22,2.00
2009,04,05,06,23,2.10
2009,04,05,06,24,2.10
2009,04,05,06,25,2.10
2009,04,05,06,26,2.10
2009,04,05,06,27,2.10
2009,04,05,06,28,2.10
2009,04,05,06,29,2.10
2009,04,05,06,30,2.10
2009,04,05,06,31,2.00
2009,04,05,06,32,2.00
2009,04,05,06,33,2.00
2009,04,05,06,34,2.00
2009,04,05,06,35,2.00
2009,04,05,06,36,2.00
2009,04,05,06,37,2.00
2009,04,05,06,38,2.00
2009,04,05,06,39,2.00
2009,04,05,06,40,2.00
2009,04,05,06,41,2.00
2009,04,05,06,42,2.00
2009,04,05,06,43,2.00
2009,04,05,06,44,2.00
2009,04,05,06,45,2.00
2009,04,05,06,46,2.00
2009,04,05,06,47,2.00
2009,04,05,06,48,2.00
2009,04,05,06,49,2.00
2009,04,05,06,50,2.00
2009,04,05,06,51,2.00
2009,04,05,06,52,2.00
2009,04,05,06,53,2.00
2009,04,05,06,54,2.00
2009,04,05,06,55,2.00
2009,04,05,06,56,2.00
2009,04,05,06,57,2.00
2009,04,05,06,58,2.00
2009,04,05,06,59,2.00
2009,04,05,07,00,2.00
2009,04,05,07,01,2.00
2009,04,05,07,02,2.00
2009,04,05,07,03,2.00
2009,04,05,07,04,2.00
2009,04,05,07,05,1.90
2009,04,05,07,06,1.90
2009,04,05,07,07,1.90
2009,04,05,07,08,1.90
2009,04,05,07,09,2.00
2009,04,05,07,10,2.00
2009,04,05,07,11,2.00
2009,04,05,07,12,2.10
2009,04,05,07,13,2.10
2009,04,05,07,14,2.10
2009,04,05,07,15,2.20
2009,04,05,07,16,2.20
2009,04,05,07,17,2.20
2009,04,05,07,18,2.20
2009,04,05,07,19,2.20
2009,04,05,07,20,2.20
2009,04,05,07,21,2.20
2009,04,05,07,22,2.20
2009,04,05,07,23,2.30
2009,04,05,07,24,2.30
2009,04,05,07,25,2.30
2009,04,05,07,26,2.30
2009,04,05,07,27,2.30
2009,04,05,07,28,2.30
2009,04,05,07,29,2.30
2009,04,05,07,30,2.30
2009,04,05,07,31,2.30
2009,04,05,07,32,2.30
2009,04,05,07,33,2.20
2009,04,05,07,34,2.20
2009,04,05,07,35,2.20
2009,04,05,07,36,2.20
2009,04,05,07,37,2.20
2009,04,05,07,38,2.20
2009,04,05,07,39,2.20
2009,04,05,07,40,2.20
2009,04,05,07,41,2.20
2009,04,05,07,42,2.30
2009,04,05,07,43,2.30
2009,04,05,07,44,2.30
2009,04,05,07,45,2.30
2009,04,05,07,46,2.30
2009,04,05,07,47,2.30
2009,04,05,07,48,2.40
2009,04,05,07,49,2.40
2009,04,05,07,50,2.40
2009,04,05,07,51,2.40
2009,04,05,07,52,2.40
2009,04,05,07,53,2.50
2009,04,05,07,54,2.50
2009,04,05,07,55,2.50
2009,04,05,07,56,2.60
2009,04,05,07,57,2.60
2009,04,05,07,58,2.60
2009,04,05,07,59,2.60
2009,04,05,08,00,2.70
2009,04,05,08,01,2.70
2009,04,05,08,02,2.70
2009,04,05,08,03,2.70
2009,04,05,08,04,2.80
2009,04,05,08,05,2.80
2009,04,05,08,06,2.80
2009,04,05,08,07,2.90
2009,04,05,08,08,2.90
2009,04,05,08,09,2.90
2009,04,05,08,10,3.00
2009,04,05,08,11,3.00
2009,04,05,08,12,3.10
2009,04,05,08,13,3.10
2009,04,05,08,14,3.10
2009,04,05,08,15,3.20
2009,04,05,08,16,3.20
2009,04,05,08,17,3.20
2009,04,05,08,18,3.30
2009,04,05,08,19,3.30
2009,04,05,08,20,3.40
2009,04,05,08,21,3.40
2009,04,05,08,22,3.50
2009,04,05,08,23,3.50
2009,04,05,08,24,3.60
2009,04,05,08,25,3.60
2009,04,05,08,26,3.70
2009,04,05,08,27,3.70
2009,04,05,08,28,3.80
2009,04,05,08,29,3.80
2009,04,05,08,30,3.90
2009,04,05,08,31,3.90
2009,04,05,08,32,4.00
2009,04,05,08,33,4.00
2009,04,05,08,34,4.10
2009,04,05,08,35,4.10
2009,04,05,08,36,4.20
2009,04,05,08,37,4.20
2009,04,05,08,38,4.30
2009,04,05,08,39,4.30
2009,04,05,08,40,4.40
2009,04,05,08,41,4.40
2009,04,05,08,42,4.50
2009,04,05,08,43,4.50
2009,04,05,08,44,4.60
2009,04,05,08,45,4.70
2009,04,05,08,46,4.70
2009,04,05,08,47,4.80
2009,04,05,08,48,4.80
2009,04,05,08,49,4.90
2009,04,05,08,50,5.00
2009,04,05,08,51,5.10
2009,04,05,08,52,5.20
2009,04,05,08,53,5.30
2009,04,05,08,54,5.40
2009,04,05,08,55,5.50
2009,04,05,08,56,5.50
2009,04,05,08,57,5.60
2009,04,05,08,58,5.70
2009,04,05,08,59,5.80
2009,04,05,09,00,5.90
2009,04,05,09,01,6.00
2009,04,05,09,02,6.10
2009,04,05,09,03,6.20
2009,04,05,09,04,6.30
2009,04,05,09,05,6.40
2009,04,05,09,06,6.50
2009,04,05,09,07,6.50
2009,04,05,09,08,6.60
2009,04,05,09,09,6.70
2009,04,05,09,10,6.80
2009,04,05,09,11,6.80
2009,04,05,09,12,6.90
2009,04,05,09,13,6.90
2009,04,05,09,14,6.90
2009,04,05,09,15,6.90
2009,04,05,09,16,7.00
2009,04,05,09,17,7.00
2009,04,05,09,18,6.90
2009,04,05,09,19,6.90
2009,04,05,09,20,6.90
2009,04,05,09,21,7.00
2009,04,05,09,22,7.00
2009,04,05,09,23,7.10
2009,04,05,09,24,7.10
2009,04,05,09,25,7.20
2009,04,05,09,26,7.20
2009,04,05,09,27,7.20
2009,04,05,09,28,7.20
2009,04,05,09,29,7.20
2009,04,05,09,30,7.20
2009,04,05,09,31,7.20
2009,04,05,09,32,7.20
2009,04,05,09,33,7.30
2009,04,05,09,34,7.40
2009,04,05,09,35,7.40
2009,04,05,09,36,7.50
2009,04,05,09,37,7.60
2009,04,05,09,38,7.60
2009,04,05,09,39,7.60
2009,04,05,09,40,7.60
2009,04,05,09,41,7.60
2009,04,05,09,42,7.60
2009,04,05,09,43,7.70
2009,04,05,09,44,7.70
2009,04,05,09,45,7.80
2009,04,05,09,46,7.80
2009,04,05,09,47,7.90
2009,04,05,09,48,7.90
2009,04,05,09,49,7.90
2009,04,05,09,50,8.00
2009,04,05,09,51,8.10
2009,04,05,09,52,8.20
2009,04,05,09,53,8.20
2009,04,05,09,54,8.20
2009,04,05,09,55,8.30
2009,04,05,09,56,8.30
2009,04,05,09,57,8.30
2009,04,05,09,58,8.30
2009,04,05,09,59,8.30
2009,04,05,10,00,8.20
2009,04,05,10,01,8.20
2009,04,05,10,02,8.20
2009,04,05,10,03,8.20
2009,04,05,10,04,8.20
2009,04,05,10,05,8.10
2009,04,05,10,06,8.10
2009,04,05,10,07,8.10
2009,04,05,10,08,8.10
2009,04,05,10,09,8.10
2009,04,05,10,10,8.00
2009,04,05,10,11,8.00
2009,04,05,10,12,8.00
2009,04,05,10,13,8.00
2009,04,05,10,14,8.00
2009,04,05,10,15,8.00
2009,04,05,10,16,8.00
2009,04,05,10,17,8.00
2009,04,05,10,18,8.00
2009,04,05,10,19,8.00
2009,04,05,10,20,8.10
2009,04,05,10,21,8.10
2009,04,05,10,22,8.10
2009,04,05,10,23,8.10
2009,04,05,10,24,8.10
2009,04,05,10,25,8.20
2009,04,05,10,26,8.10
2009,04,05,10,27,8.20
2009,04,05,10,28,8.20
2009,04,05,10,29,8.20
2009,04,05,10,30,8.20
2009,04,05,10,31,8.30
2009,04,05,10,32,8.30
2009,04,05,10,33,8.30
2009,04,05,10,34,8.30
2009,04,05,10,35,8.30
2009,04,05,10,36,8.30
2009,04,05,10,37,8.30
2009,04,05,10,38,8.30
2009,04,05,10,39,8.30
2009,04,05,10,40,8.20
2009,04,05,10,41,8.20
2009,04,05,10,42,8.10
2009,04,05,10,43,8.10
2009,04,05,10,44,8.10
2009,04,05,10,45,8.10
2009,04,05,10,46,8.10
2009,04,05,10,47,8.20
2009,04,05,10,48,8.20
2009,04,05,10,49,8.20
2009,04,05,10,50,8.30
2009,04,05,10,51,8.40
2009,04,05,10,52,8.40
2009,04,05,10,53,8.50
2009,04,05,10,54,8.60
2009,04,05,10,55,8.70
2009,04,05,10,56,8.70
2009,04,05,10,57,8.80
2009,04,05,10,58,8.80
2009,04,05,10,59,8.90
2009,04,05,11,00,8.90
2009,04,05,11,01,8.90
2009,04,05,11,02,8.90
2009,04,05,11,03,9.00
2009,04,05,11,04,9.00
2009,04,05,11,05,9.10
2009,04,05,11,06,9.10
2009,04,05,11,07,9.10
2009,04,05,11,08,9.10
2009,04,05,11,09,9.20
2009,04,05,11,10,9.20
2009,04,05,11,11,9.30
2009,04,05,11,12,9.30
2009,04,05,11,13,9.30
2009,04,05,11,14,9.40
2009,04,05,11,15,9.30
2009,04,05,11,16,9.30
2009,04,05,11,17,9.20
2009,04,05,11,18,9.20
2009,04,05,11,19,9.20
2009,04,05,11,20,9.20
2009,04,05,11,21,9.20
2009,04,05,11,22,9.10
2009,04,05,11,23,9.10
2009,04,05,11,24,9.10
2009,04,05,11,25,9.10
2009,04,05,11,26,9.20
2009,04,05,11,27,9.20
2009,04,05,11,28,9.20
2009,04,05,11,29,9.20
2009,04,05,11,30,9.10
2009,04,05,11,31,9.10
2009,04,05,11,32,9.10
2009,04,05,11,33,9.10
2009,04,05,11,34,9.10
2009,04,05,11,35,9.10
2009,04,05,11,36,9.10
2009,04,05,11,37,9.20
2009,04,05,11,38,9.20
2009,04,05,11,39,9.20
2009,04,05,11,40,9.20
2009,04,05,11,41,9.20
2009,04,05,11,42,9.30
2009,04,05,11,43,9.30
2009,04,05,11,44,9.40
2009,04,05,11,45,9.50
2009,04,05,11,46,9.60
2009,04,05,11,47,9.70
2009,04,05,11,48,9.80
2009,04,05,11,49,9.90
2009,04,05,11,50,9.90
2009,04,05,11,51,9.90
2009,04,05,11,52,9.80
2009,04,05,11,53,9.60
2009,04,05,11,54,9.50
2009,04,05,11,55,9.40
2009,04,05,11,56,9.30
2009,04,05,11,57,9.30
2009,04,05,11,58,9.30
2009,04,05,11,59,9.30
2009,04,05,12,00,9.30
2009,04,05,12,01,9.40
2009,04,05,12,02,9.50
2009,04,05,12,03,9.70
2009,04,05,12,04,9.80
2009,04,05,12,05,9.80
2009,04,05,12,06,9.80
2009,04,05,12,07,9.70
2009,04,05,12,08,9.70
2009,04,05,12,09,9.70
2009,04,05,12,10,9.70
2009,04,05,12,11,9.80
2009,04,05,12,12,9.80
2009,04,05,12,13,9.80
2009,04,05,12,14,9.90
2009,04,05,12,15,10.00
2009,04,05,12,16,10.00
2009,04,05,12,17,10.00
2009,04,05,12,18,9.90
2009,04,05,12,19,9.80
2009,04,05,12,20,9.80
2009,04,05,12,21,9.90
2009,04,05,12,22,9.90
2009,04,05,12,23,9.90
2009,04,05,12,24,10.00
2009,04,05,12,25,10.00
2009,04,05,12,26,10.10
2009,04,05,12,27,10.20
2009,04,05,12,28,10.30
2009,04,05,12,29,10.30
2009,04,05,12,30,10.30
2009,04,05,12,31,10.30
2009,04,05,12,32,10.30
2009,04,05,12,33,10.20
2009,04,05,12,34,10.20
2009,04,05,12,35,10.20
2009,04,05,12,36,10.30
2009,04,05,12,37,10.20
2009,04,05,12,38,10.10
2009,04,05,12,39,10.10
2009,04,05,12,40,10.00
2009,04,05,12,41,10.00
2009,04,05,12,42,9.90
2009,04,05,12,43,9.80
2009,04,05,12,44,9.80
2009,04,05,12,45,9.70
2009,04,05,12,46,9.70
2009,04,05,12,47,9.80
2009,04,05,12,48,9.80
2009,04,05,12,49,9.80
2009,04,05,12,50,9.80
2009,04,05,12,51,9.80
2009,04,05,12,52,9.70
2009,04,05,12,53,9.70
2009,04,05,12,54,9.80
2009,04,05,12,55,9.80
2009,04,05,12,56,9.90
2009,04,05,12,57,9.90
2009,04,05,12,58,10.00
2009,04,05,12,59,10.00
2009,04,05,13,00,10.10
2009,04,05,13,01,10.20
2009,04,05,13,02,10.20
2009,04,05,13,03,10.20
2009,04,05,13,04,10.20
2009,04,05,13,05,10.20
2009,04,05,13,06,10.30
2009,04,05,13,07,10.20
2009,04,05,13,08,10.20
2009,04,05,13,09,10.10
2009,04,05,13,10,10.10
2009,04,05,13,11,10.10
2009,04,05,13,12,10.10
2009,04,05,13,13,10.10
2009,04,05,13,14,10.20
2009,04,05,13,15,10.30
2009,04,05,13,16,10.40
2009,04,05,13,17,10.40
2009,04,05,13,18,10.40
2009,04,05,13,19,10.50
2009,04,05,13,20,10.60
2009,04,05,13,21,10.60
2009,04,05,13,22,10.60
2009,04,05,13,23,10.60
2009,04,05,13,24,10.60
2009,04,05,13,25,10.60
2009,04,05,13,26,10.80
2009,04,05,13,27,10.80
2009,04,05,13,28,10.90
2009,04,05,13,29,10.90
2009,04,05,13,30,10.90
2009,04,05,13,31,10.90
2009,04,05,13,32,10.90
2009,04,05,13,33,10.90
2009,04,05,13,34,10.80
2009,04,05,13,35,10.80
2009,04,05,13,36,10.80
2009,04,05,13,37,10.70
2009,04,05,13,38,10.70
2009,04,05,13,39,10.60
2009,04,05,13,40,10.50
2009,04,05,13,41,10.40
2009,04,05,13,42,10.40
2009,04,05,13,43,10.40
2009,04,05,13,44,10.50
2009,04,05,13,45,10.60
2009,04,05,13,46,10.60
2009,04,05,13,47,10.70
2009,04,05,13,48,10.80
2009,04,05,13,49,10.80
2009,04,05,13,50,10.80
2009,04,05,13,51,10.80
2009,04,05,13,52,10.80
2009,04,05,13,53,10.80
2009,04,05,13,54,10.80
2009,04,05,13,55,10.90
2009,04,05,13,56,11.00
2009,04,05,13,57,11.10
2009,04,05,13,58,11.10
2009,04,05,13,59,11.20
2009,04,05,14,00,11.20
2009,04,05,14,01,11.20
2009,04,05,14,02,11.30
2009,04,05,14,03,11.30
2009,04,05,14,04,11.30
2009,04,05,14,05,11.30
2009,04,05,14,06,11.20
2009,04,05,14,07,11.20
2009,04,05,14,08,11.30
2009,04,05,14,09,11.30
2009,04,05,14,10,11.30
2009,04,05,14,11,11.30
2009,04,05,14,12,11.30
2009,04,05,14,13,11.40
2009,04,05,14,14,11.40
2009,04,05,14,15,11.50
2009,04,05,14,16,11.50
2009,04,05,14,17,11.60
2009,04,05,14,18,11.60
2009,04,05,14,19,11.60
2009,04,05,14,20,11.50
2009,04,05,14,21,11.40
2009,04,05,14,22,11.50
2009,04,05,14,23,11.60
2009,04,05,14,24,11.60
2009,04,05,14,25,11.50
2009,04,05,14,26,11.40
2009,04,05,14,27,11.40
2009,04,05,14,28,11.30
2009,04,05,14,29,11.30
2009,04,05,14,30,11.30
2009,04,05,14,31,11.30
2009,04,05,14,32,11.30
2009,04,05,14,33,11.30
2009,04,05,14,34,11.40
2009,04,05,14,35,11.40
2009,04,05,14,36,11.50
2009,04,05,14,37,11.50
2009,04,05,14,38,11.50
2009,04,05,14,39,11.40
2009,04,05,14,40,11.40
2009,04,05,14,41,11.30
2009,04,05,14,42,11.30
2009,04,05,14,43,11.20
2009,04,05,14,44,11.20
2009,04,05,14,45,11.20
2009,04,05,14,46,11.20
2009,04,05,14,47,11.20
2009,04,05,14,48,11.30
2009,04,05,14,49,11.30
2009,04,05,14,50,11.40
2009,04,05,14,51,11.40
2009,04,05,14,52,11.40
2009,04,05,14,53,11.30
2009,04,05,14,54,11.30
2009,04,05,14,55,11.20
2009,04,05,14,56,11.20
2009,04,05,14,57,11.20
2009,04,05,14,58,11.20
2009,04,05,14,59,11.20
2009,04,05,15,00,11.20
2009,04,05,15,01,11.20
2009,04,05,15,02,11.20
2009,04,05,15,03,11.30
2009,04,05,15,04,11.40
2009,04,05,15,05,11.40
2009,04,05,15,06,11.40
2009,04,05,15,07,11.50
2009,04,05,15,08,11.60
2009,04,05,15,09,11.60
2009,04,05,15,10,11.70
2009,04,05,15,11,11.80
2009,04,05,15,12,11.80
2009,04,05,15,13,11.80
2009,04,05,15,14,11.90
2009,04,05,15,15,11.80
2009,04,05,15,16,11.80
2009,04,05,15,17,11.70
2009,04,05,15,18,11.60
2009,04,05,15,19,11.70
2009,04,05,15,20,11.60
2009,04,05,15,21,11.60
2009,04,05,15,22,11.60
2009,04,05,15,23,11.60
2009,04,05,15,24,11.60
2009,04,05,15,25,11.60
2009,04,05,15,26,11.60
2009,04,05,15,27,11.60
2009,04,05,15,28,11.70
2009,04,05,15,29,11.80
2009,04,05,15,30,11.90
2009,04,05,15,31,11.90
2009,04,05,15,32,11.90
2009,04,05,15,33,11.90
2009,04,05,15,34,11.90
2009,04,05,15,35,11.80
2009,04,05,15,36,11.80
2009,04,05,15,37,11.80
2009,04,05,15,38,11.70
2009,04,05,15,39,11.70
2009,04,05,15,40,11.80
2009,04,05,15,41,11.80
2009,04,05,15,42,11.90
2009,04,05,15,43,11.90
2009,04,05,15,44,12.10
2009,04,05,15,45,12.20
2009,04,05,15,46,12.30
2009,04,05,15,47,12.40
2009,04,05,15,48,12.50
2009,04,05,15,49,12.60
2009,04,05,15,50,12.50
2009,04,05,15,51,12.40
2009,04,05,15,52,12.40
2009,04,05,15,53,12.40
2009,04,05,15,54,12.40
2009,04,05,15,55,12.30
2009,04,05,15,56,12.30
2009,04,05,15,57,12.30
2009,04,05,15,58,12.30
2009,04,05,15,59,12.30
2009,04,05,16,00,12.20
2009,04,05,16,01,12.20
2009,04,05,16,02,12.20
2009,04,05,16,03,12.20
2009,04,05,16,04,12.20
2009,04,05,16,05,12.30
2009,04,05,16,06,12.30
2009,04,05,16,07,12.30
2009,04,05,16,08,12.30
2009,04,05,16,09,12.20
2009,04,05,16,10,12.20
2009,04,05,16,11,12.30
2009,04,05,16,12,12.40
2009,04,05,16,13,12.40
2009,04,05,16,14,12.50
2009,04,05,16,15,12.50
2009,04,05,16,16,12.50
2009,04,05,16,17,12.50
2009,04,05,16,18,12.50
2009,04,05,16,19,12.40
2009,04,05,16,20,12.40
2009,04,05,16,21,12.30
2009,04,05,16,22,12.30
2009,04,05,16,23,12.40
2009,04,05,16,24,12.50
2009,04,05,16,25,12.60
2009,04,05,16,26,12.70
2009,04,05,16,27,12.70
2009,04,05,16,28,12.70
2009,04,05,16,29,12.80
2009,04,05,16,30,12.80
2009,04,05,16,31,12.90
2009,04,05,16,32,12.90
2009,04,05,16,33,12.80
2009,04,05,16,34,12.80
2009,04,05,16,35,12.80
2009,04,05,16,36,12.80
2009,04,05,16,37,12.80
2009,04,05,16,38,12.70
2009,04,05,16,39,12.70
2009,04,05,16,40,12.70
2009,04,05,16,41,12.70
2009,04,05,16,42,12.60
2009,04,05,16,43,12.50
2009,04,05,16,44,12.50
2009,04,05,16,45,12.50
2009,04,05,16,46,12.40
2009,04,05,16,47,12.40
2009,04,05,16,48,12.40
2009,04,05,16,49,12.30
2009,04,05,16,50,12.30
2009,04,05,16,51,12.20
2009,04,05,16,52,12.20
2009,04,05,16,53,12.20
2009,04,05,16,54,12.20
2009,04,05,16,55,12.30
2009,04,05,16,56,12.30
2009,04,05,16,57,12.30
2009,04,05,16,58,12.30
2009,04,05,16,59,12.30
2009,04,05,17,00,12.20
2009,04,05,17,01,12.20
2009,04,05,17,02,12.20
2009,04,05,17,03,12.20
2009,04,05,17,04,12.20
2009,04,05,17,05,12.20
2009,04,05,17,06,12.20
2009,04,05,17,07,12.20
2009,04,05,17,08,12.20
2009,04,05,17,09,12.20
2009,04,05,17,10,12.20
2009,04,05,17,11,12.10
2009,04,05,17,12,12.10
2009,04,05,17,13,12.10
2009,04,05,17,14,12.10
2009,04,05,17,15,12.10
2009,04,05,17,16,12.10
2009,04,05,17,17,12.10
2009,04,05,17,18,12.10
2009,04,05,17,19,12.10
2009,04,05,17,20,12.00
2009,04,05,17,21,11.90
2009,04,05,17,22,11.90
2009,04,05,17,23,11.80
2009,04,05,17,24,11.80
2009,04,05,17,25,11.80
2009,04,05,17,26,11.70
2009,04,05,17,27,11.80
2009,04,05,17,28,11.80
2009,04,05,17,29,11.80
2009,04,05,17,30,11.90
2009,04,05,17,31,11.90
2009,04,05,17,32,11.90
2009,04,05,17,33,11.90
2009,04,05,17,34,11.80
2009,04,05,17,35,11.80
2009,04,05,17,36,11.80
2009,04,05,17,37,11.70
2009,04,05,17,38,11.70
2009,04,05,17,39,11.70
2009,04,05,17,40,11.70
2009,04,05,17,41,11.70
2009,04,05,17,42,11.80
2009,04,05,17,43,11.80
2009,04,05,17,44,11.70
2009,04,05,17,45,11.70
2009,04,05,17,46,11.70
2009,04,05,17,47,11.70
2009,04,05,17,48,11.70
2009,04,05,17,49,11.70
2009,04,05,17,50,11.70
2009,04,05,17,51,11.70
2009,04,05,17,52,11.80
2009,04,05,17,53,11.80
2009,04,05,17,54,11.80
2009,04,05,17,55,11.80
2009,04,05,17,56,11.90
2009,04,05,17,57,11.90
2009,04,05,17,58,11.90
2009,04,05,17,59,11.90
2009,04,05,18,00,11.90
2009,04,05,18,01,12.00
2009,04,05,18,02,12.10
2009,04,05,18,03,12.10
2009,04,05,18,04,12.20
2009,04,05,18,05,12.20
2009,04,05,18,06,12.20
2009,04,05,18,07,12.20
2009,04,05,18,08,12.20
2009,04,05,18,09,12.20
2009,04,05,18,10,12.20
2009,04,05,18,11,12.20
2009,04,05,18,12,12.20
2009,04,05,18,13,12.20
2009,04,05,18,14,12.20
2009,04,05,18,15,12.20
2009,04,05,18,16,12.20
2009,04,05,18,17,12.10
2009,04,05,18,18,12.10
2009,04,05,18,19,12.10
2009,04,05,18,20,12.10
2009,04,05,18,21,12.00
2009,04,05,18,22,12.00
2009,04,05,18,23,12.00
2009,04,05,18,24,12.00
2009,04,05,18,25,12.00
2009,04,05,18,26,11.90
2009,04,05,18,27,11.90
2009,04,05,18,28,11.90
2009,04,05,18,29,11.80
2009,04,05,18,30,11.80
2009,04,05,18,31,11.80
2009,04,05,18,32,11.80
2009,04,05,18,33,11.80
2009,04,05,18,34,11.90
2009,04,05,18,35,11.90
2009,04,05,18,36,11.90
2009,04,05,18,37,12.00
2009,04,05,18,38,12.00
2009,04,05,18,39,12.00